PROGRESS MS-34

Basic Information
目录编号:
68837
目录名称:
PROGRESS MS-34
国际标识:
2026-093A
轨道中心:
EARTH
卫星名称:
PROGRESS MS-34
卫星全名:
PROGRESS MS-34
卫星状态:
在轨 (已飞行6 天)
发射日期:
2026-04-25 UTC
国别 :
俄罗斯(独联体) (CIS)
星等 :
--
Orbit Information
数据来源 国际轨道数据
星历时间: 2026-05-01T13:34:18+0800
8小时前
查看轨道信息
半长轴: 6797.654km
偏心率: 0.0007184
轨道倾角: 51.631°
近地点辐角 10.521°
升交点赤经 172.518°
平近点角 349.593°
近地点: 414.633km
远地点: 424.401km
周期: 92.960分钟
每日圈数: 15.490456
Detailed Information
使用方式:
暂无
2D Orbit Map
3D Orbit Map
Orbit Altitude Analysis Chart
Orbit Inclination Analysis Chart
Orbit Comprehensive Analysis Chart
View Comprehensive Chart